[[{"header":{"parameterUnit":"m.s-1","parameterCategory":1,"la1":30.2991,"la2":30.254,"lo1":-89.0895,"lo2":-89.0444,"dy":0.0017,"dx":0.0017,"nx":28,"ny":28,"refTime":"2026-02-15T03:00:00:Z","depth":0,"parameterNumber":2,"parameterNumberName":"U-component_of_WINDS"},"data":[0,0,0,0,0,0,0,0,0,0,0,0,0,0,0,0,0,0,0,0,0,0,0,0,0,0,0,0,0,0,0,0,0,0,0,0,0,0,0,0,0,0,0,0,0,0,0,0,0,0,0,0,0,0,0,0,0,0,2.0131,2.0129,0,1.9875,1.9872,1.9869,1.9575,1.957,1.9566,1.9562,1.9305,1.9302,1.9299,0,0,0,0,0,0,0,0,0,0,0,0,0,2.0375,2.0373,2.0132,2.0128,2.0125,1.9875,1.9872,1.9868,1.9576,1.957,1.9565,1.956,1.9306,1.9302,1.9299,0,0,0,0,0,0,0,0,0,0,0,0,0,2.021,2.0372,2.0132,1.9949,1.993,1.9876,1.9872,1.9867,1.9577,1.957,1.9563,1.9557,1.9307,1.9303,1.9299,1.9406,0,0,1.9286,1.9284,0,0,0,0,0,0,0,0,2.022,2.0201,1.9979,1.9961,1.994,1.975,1.9863,1.9713,1.9578,1.9711,1.9562,1.9554,1.9459,1.9442,1.9408,1.9394,1.9383,1.9286,1.9283,1.9282,1.928,0,0,0,0,0,0,0,2.0231,2.021,2.003,1.9976,1.9952,1.9882,1.9851,1.9833,1.9625,1.9699,1.9677,1.965,1.9447,1.9413,1.94,1.9379,1.9286,1.9282,1.928,1.9278,1.9445,1.9451,0,0,0,0,0,0,2.027,2.0222,2.0038,2.0022,2.0066,1.9883,1.9848,1.9818,1.9625,1.9589,1.9656,1.9638,1.9423,1.9405,1.939,1.9506,1.9282,1.9278,1.9275,1.9438,1.9446,1.9454,0,0,0,0,0,0,2.0276,2.0256,2.0048,2.0116,2.0084,1.9886,1.9854,1.9816,1.9782,1.9592,1.9554,1.966,1.9417,1.9396,1.9405,1.9493,1.9276,1.9272,1.943,1.944,1.945,1.9738,0,0,0,0,0,0,2.0284,2.026,2.0297,2.0119,2.0082,2.0067,1.9859,1.9816,1.9775,1.9748,1.9585,1.9552,1.941,1.9412,1.9401,1.9483,1.9269,1.9421,1.9434,1.9447,1.972,1.9757,1.9789,0,0,0,0,0,2.0294,2.0388,2.03,2.028,2.0123,2.0072,2.0051,1.9884,1.9783,1.982,1.9699,1.9557,1.9485,1.9416,1.94,1.9483,1.9415,1.9431,1.9446,1.9704,1.975,1.9788,0,0,0,0,0,0,2.0583,2.0362,2.0261,2.0301,2.0208,2.0022,2.0064,1.9937,1.9872,1.985,1.9647,1.9613,1.9648,1.9565,1.9492,1.9579,1.9429,1.9443,1.9632,1.9673,1.9707,1.9728,1.9266,0,0,0,0,0,2.0651,2.0626,2.0434,2.0488,2.0446,2.0264,2.0235,2.0115,2.0011,1.9971,1.9849,1.9756,1.9712,1.9687,1.9636,1.9706,1.9668,1.9755,1.979,1.9819,1.9834,1.9869,1.9907,1.9504,1.9504,1.9504,0,0,2.0792,2.0668,2.0664,2.0543,2.0456,2.0438,2.0233,2.022,2.0206,1.9969,1.9971,1.988,1.9761,1.9803,1.9815,1.9735,1.9936,1.9839,1.9863,1.9862,1.9889,1.9927,1.9961,1.9515,1.9513,1.9511,0,0,2.104,2.0942,2.0977,2.0895,2.0767,2.0645,2.0655,2.0489,2.0419,2.0417,2.0241,2.0221,2.0148,2.0073,2.0025,2.0249,2.0118,2.0238,2.0419,2.0456,2.0488,2.0515,2.0599,2.0631,2.0252,2.0253,2.0254,0,2.1232,2.1194,2.1012,2.1012,2.0966,2.0749,2.0786,2.0716,2.0579,2.0553,2.0465,2.0372,2.0277,2.03,2.0355,2.0322,2.0329,2.0256,2.0497,2.0523,2.0545,2.0623,2.0655,2.0269,2.0267,2.0265,2.0264,0,2.1439,2.1416,2.146,2.1333,2.1291,2.131,2.1134,2.1114,2.0999,2.0888,2.0892,2.077,2.0693,2.0689,2.0575,2.0697,2.0652,2.0534,2.038,2.0603,2.0673,2.0701,2.0291,2.0286,2.0281,2.0277,0,0,2.1861,2.1634,2.1654,2.1595,2.1439,2.1419,2.143,2.1353,2.1342,2.1255,2.1262,2.1207,2.1097,2.1044,2.092,2.0952,2.1143,2.0829,2.0824,2.0896,2.1275,2.1368,2.1405,2.1054,2.1059,2.1062,2.1286,0,2.2083,2.2087,2.1925,2.1975,2.1954,2.175,2.176,2.1667,2.1565,2.1535,2.1421,2.1387,2.1243,2.121,2.1232,2.1115,2.1217,2.1096,2.1062,2.1063,2.1102,2.144,2.1537,2.1754,2.1312,2.1316,2.1319,0,2.2342,2.2271,2.232,2.2165,2.215,2.2162,2.2081,2.2052,2.1945,2.1868,2.1811,2.167,2.1673,2.1527,2.153,2.1452,2.1428,2.1369,2.1374,2.1367,2.1207,2.1447,2.1818,2.1854,2.136,2.1357,2.1354,0,2.2651,2.2567,2.2586,2.2541,2.236,2.2374,2.23,2.2185,2.2151,2.208,2.2057,2.1988,2.1952,2.1904,2.1751,2.1657,2.1774,2.1613,2.1714,2.1719,2.175,2.1751,2.2128,2.173,2.173,2.1729,2.1729,0,2.2918,2.2957,2.2722,2.2735,2.2773,2.2588,2.2632,2.2538,2.2439,2.2431,2.225,2.2248,2.2043,2.2019,2.1899,2.1924,2.1907,2.1849,2.1817,2.1867,2.1875,2.1851,2.1833,2.1737,2.1736,2.1734,2.1733,0,2.327,2.3114,2.3122,2.295,2.2908,2.2945,2.2799,2.2806,2.2692,2.2686,2.2674,2.2498,2.246,2.2301,2.2226,2.2145,2.2211,2.2146,2.2248,2.2228,2.234,2.2333,2.2717,2.276,2.2333,2.2337,2.2341,0,2.3452,2.3477,2.3309,2.3291,2.3225,2.3197,2.3161,2.2981,2.2952,2.2834,2.2856,2.2803,2.2752,2.2702,2.2569,2.2512,2.2446,2.2585,2.2437,2.2488,2.2453,2.2455,2.2459,2.2618,2.2624,2.2628,2.2632,0,2.3794,2.3716,2.367,2.36,2.3563,2.3499,2.3424,2.342,2.322,2.3197,2.3156,2.3117,2.304,2.2993,2.2914,2.2839,2.2706,2.2679,2.27,2.2753,2.2813,2.2787,2.2339,2.2672,2.2668,2.2665,2.2663,2.2661,2.4068,2.4082,2.3968,2.3925,2.385,2.3785,2.3784,2.3671,2.3633,2.3557,2.3453,2.3427,2.3322,2.3202,2.3139,2.3118,2.3042,2.3071,2.3079,2.3091,2.3117,2.2814,2.3102,2.3101,2.31,2.3099,2.3098,0,2.4403,2.432,2.4282,2.4184,2.4152,2.4025,2.3937,2.392,2.3899,2.3811,2.3765,2.3721,2.3675,2.3539,2.348,2.349,2.3427,2.3481,2.348,2.3466,2.3187,2.3176,2.3533,2.3533,2.3533,2.3533,2.3533,2.3533,2.4574,2.4593,2.4503,2.4486,2.4401,2.4374,2.4335,2.4277,2.4206,2.4165,2.4125,2.4037,2.3931,2.3864,2.3817,2.3778,2.3767,2.3843,2.3785,2.3527,2.3485,2.3446,2.3435,2.384,2.3841,2.4066,2.4068,2.407]},{"header":{"parameterUnit":"m.s-1","parameterCategory":1,"la1":30.2991,"la2":30.254,"lo1":-89.0895,"lo2":-89.0444,"dy":0.0017,"dx":0.0017,"nx":28,"ny":28,"refTime":"2026-02-15T03:00:00:Z","depth":0,"parameterNumber":3,"parameterNumberName":"V-component_of_WINDS"},"data":[0,0,0,0,0,0,0,0,0,0,0,0,0,0,0,0,0,0,0,0,0,0,0,0,0,0,0,0,0,0,0,0,0,0,0,0,0,0,0,0,0,0,0,0,0,0,0,0,0,0,0,0,0,0,0,0,0,0,10.0271,10.0271,0,10.0282,10.0282,10.0282,10.0149,10.0145,10.0142,10.0138,10.0144,10.0147,10.0151,0,0,0,0,0,0,0,0,0,0,0,0,0,10.0132,10.0135,10.0271,10.0271,10.0271,10.0282,10.0282,10.0282,10.015,10.0145,10.0141,10.0137,10.0143,10.0147,10.0151,0,0,0,0,0,0,0,0,0,0,0,0,0,10.0172,10.0136,10.0271,10.0206,10.0201,10.0282,10.0282,10.0282,10.0151,10.0145,10.014,10.0135,10.0141,10.0147,10.0152,10.0294,0,0,10.0168,10.017,0,0,0,0,0,0,0,0,10.017,10.0178,10.0216,10.0211,10.0205,10.0209,10.0235,10.0286,10.0152,10.0169,10.0138,10.0132,10.017,10.0172,10.0186,10.0294,10.0294,10.0168,10.0172,10.0174,10.0175,0,0,0,0,0,0,0,10.0168,10.0176,10.0275,10.0216,10.021,10.0176,10.0176,10.0244,10.02,10.0167,10.0158,10.0161,10.0165,10.0181,10.0185,10.0294,10.0168,10.0173,10.0176,10.0178,10.0521,10.0527,0,0,0,0,0,0,10.0174,10.0175,10.0275,10.0275,10.0174,10.0183,10.0183,10.0213,10.0199,10.0191,10.0166,10.0155,10.0175,10.0179,10.0185,10.035,10.0174,10.0179,10.0182,10.0515,10.0522,10.0529,0,0,0,0,0,0,10.0172,10.0184,10.0274,10.0223,10.0232,10.0191,10.0226,10.0216,10.0231,10.0198,10.0188,10.019,10.0171,10.0177,10.0268,10.0348,10.0181,10.0186,10.0508,10.0517,10.0526,10.0682,0,0,0,0,0,0,10.0168,10.0184,10.0238,10.0225,10.0235,10.0359,10.0231,10.022,10.0242,10.0228,10.0218,10.0211,10.0167,10.0261,10.0274,10.0353,10.019,10.0501,10.0512,10.0523,10.0669,10.0695,10.0717,0,0,0,0,0,10.0164,10.0279,10.0241,10.0254,10.0301,10.0363,10.0369,10.0317,10.0249,10.0302,10.0281,10.0211,10.0339,10.0272,10.0285,10.0366,10.0495,10.0509,10.0522,10.0659,10.069,10.0717,0,0,0,0,0,0,10.0298,10.0276,10.0233,10.0349,10.036,10.0341,10.0406,10.0352,10.038,10.0365,10.0299,10.0298,10.04,10.0393,10.0318,10.0504,10.0405,10.0421,10.0504,10.0534,10.0557,10.0555,10.0195,0,0,0,0,0,10.0343,10.0397,10.0374,10.0478,10.0486,10.0446,10.0471,10.0431,10.0438,10.0441,10.0426,10.0435,10.0477,10.0506,10.0542,10.067,10.0665,10.0733,10.0757,10.0776,10.079,10.0858,10.0887,10.0573,10.0573,10.0572,0,0,10.0432,10.0427,10.0464,10.0505,10.0508,10.0565,10.045,10.0514,10.0554,10.045,10.0535,10.0526,10.0531,10.0642,10.0689,10.0638,10.0877,10.0793,10.0809,10.0812,10.0874,10.0904,10.0931,10.0582,10.058,10.0579,0,0,10.0623,10.0626,10.0713,10.0721,10.073,10.0703,10.0725,10.0716,10.0707,10.0793,10.0716,10.0764,10.0837,10.0845,10.0858,10.1061,10.0997,10.1075,10.1197,10.1264,10.1289,10.131,10.1381,10.1408,10.1089,10.109,10.109,0,10.0732,10.0816,10.0764,10.0835,10.0855,10.0769,10.0857,10.0866,10.0885,10.0901,10.0845,10.0938,10.0935,10.1046,10.1097,10.1111,10.1133,10.1073,10.129,10.1311,10.133,10.1397,10.1424,10.1099,10.1098,10.1097,10.1096,0,10.0949,10.1009,10.1079,10.1104,10.1133,10.1212,10.1172,10.1207,10.1167,10.1147,10.1236,10.1232,10.1266,10.1291,10.125,10.1398,10.1366,10.1302,10.12,10.1371,10.1432,10.1457,10.1112,10.1109,10.1106,10.1104,0,0,10.1218,10.122,10.1246,10.1258,10.1264,10.1308,10.1385,10.1423,10.1454,10.1472,10.1533,10.1601,10.1543,10.1559,10.1519,10.1579,10.1739,10.1506,10.1505,10.1548,10.19,10.1947,10.1977,10.17,10.1704,10.1708,10.1899,0,10.1404,10.1536,10.1495,10.1627,10.1682,10.1604,10.167,10.1681,10.1666,10.171,10.1692,10.1741,10.1661,10.167,10.1726,10.1708,10.1808,10.1694,10.1754,10.1756,10.1751,10.2009,10.2058,10.2238,10.1923,10.1927,10.193,0,10.1636,10.1668,10.1807,10.1808,10.1829,10.189,10.1923,10.1967,10.1978,10.1963,10.1985,10.1934,10.2008,10.1911,10.2012,10.1936,10.1959,10.1954,10.196,10.196,10.1851,10.2014,10.2294,10.2321,10.1968,10.1965,10.1962,0,10.1817,10.1895,10.1989,10.2001,10.2005,10.205,10.2053,10.206,10.2087,10.2116,10.2132,10.2169,10.2188,10.2217,10.2178,10.2111,10.2285,10.2184,10.2273,10.2274,10.2309,10.2307,10.2594,10.233,10.233,10.2329,10.2329,0,10.2026,10.2113,10.207,10.2128,10.2224,10.2178,10.2274,10.2268,10.2277,10.2331,10.2266,10.2318,10.2265,10.2312,10.2282,10.237,10.238,10.2369,10.2359,10.2373,10.2374,10.2383,10.2369,10.2336,10.2335,10.2334,10.2332,0,10.2241,10.2217,10.2313,10.2312,10.2314,10.2385,10.2383,10.2436,10.2419,10.2489,10.2502,10.2475,10.2528,10.2494,10.2545,10.2525,10.2641,10.2615,10.2637,10.2629,10.2719,10.2711,10.302,10.3058,10.2773,10.2776,10.2778,0,10.2374,10.244,10.2449,10.2482,10.2491,10.2546,10.2574,10.2533,10.2564,10.2587,10.2636,10.2685,10.272,10.2808,10.2791,10.2831,10.2804,10.2911,10.2809,10.2822,10.2803,10.2799,10.2805,10.2929,10.2933,10.2935,10.2938,0,10.2612,10.2599,10.2643,10.2687,10.2724,10.2754,10.2778,10.2809,10.2768,10.2808,10.2863,10.2891,10.2947,10.2995,10.303,10.3031,10.2978,10.2971,10.2993,10.3006,10.3015,10.301,10.269,10.2962,10.296,10.2958,10.2957,10.2956,10.2788,10.2845,10.2861,10.2915,10.2931,10.2957,10.3007,10.3,10.3046,10.309,10.3063,10.3128,10.3142,10.3183,10.3193,10.3242,10.3198,10.3231,10.3239,10.3247,10.3259,10.3012,10.3248,10.3248,10.3247,10.3246,10.3246,0,10.3022,10.3031,10.3081,10.312,10.3163,10.3115,10.3141,10.3179,10.3238,10.3257,10.3296,10.336,10.3408,10.3399,10.3442,10.3483,10.346,10.3496,10.349,10.3491,10.3296,10.3271,10.3514,10.3514,10.3514,10.3514,10.3514,10.3514,10.3148,10.3242,10.3231,10.3333,10.334,10.3406,10.3425,10.3449,10.3464,10.3541,10.3582,10.3577,10.3584,10.3629,10.367,10.3666,10.3684,10.3729,10.3715,10.3532,10.3505,10.3479,10.3456,10.3734,10.3734,10.3906,10.3908,10.3909]}]]